星链-31087 (STARLINK-31087 )

导读

STARLINK-31087是美国SpaceX星链星座的卫星,于2023年12月19日发射升空,属于星链互联网星座组网卫星。星链项目旨在为全球提供低延迟、高速率的宽带互联网服务,该卫星入轨后,进一步扩充了星链星座的在轨规模,提升了星座的覆盖能力与服务稳定性,推动全球卫星互联网布局完善。

基本信息
目录编号:
58597
目录名称:
STARLINK-31087
国际标识:
2023-200J
轨道中心:
EARTH
卫星名称:
星链-31087
卫星全名:
星链-31087 (STARLINK-31087 )
卫星状态:
在轨 (已飞行990 天)
发射日期:
2023-12-19 UTC
国别 :
美国 (US)
星等 :
--
轨道信息
数据来源 国际轨道数据
星历时间: 2026-09-04T09:22:54+0800
11小时前
查看轨道信息
半长轴: 6861.17km
偏心率: 0.000129
轨道倾角: 43.002°
近地点辐角 274.226°
升交点赤经 241.211°
平近点角 85.845°
近地点: 482.147km
远地点: 483.919km
周期: 94.266分钟
每日圈数: 15.275856
详细信息
固有亮度:
5
最大亮度:
0.3
卫星平台:
Starlink v2.0 mini
覆盖范围:
全球
运营商:
太空探索技术公司
运营商所在国:
美国
制造商(研发单位):
太空探索技术公司
制造商所在国:
美国
使用方式:
暂无
卫星简介
星链(Starlink)计划是由太空探索技术公司(SpaceX)提出的一个巨型低轨卫星互联网星座项目,计划在2019年至2024年间在太空搭建由约1.2万颗卫星组成的“星链”网络,其中1584颗将部署在地球上空550千米处的近地轨道,并从2020年开始工作。该卫星仍在工作。
2D轨道图
3D轨道图
轨道高度分析图
轨道倾角分析图
轨道综合分析图
查看轨道综合分析图